EA3HRE-13 Weather Reports


time (UTC)temp
F
wind
direction
speed
knots
gust
knots
rain 1hr
in
rain 24hr
in
rain mn
in
humidity
%
barometer
mb
20260508025844 53 0 0.0 0.0 0.00 0.00 0.00 100 1002.8
20260508024814 53 0 0.0 0.0 0.00 0.00 0.00 100 1003.0
20260508023814 53 0 0.0 0.0 0.00 0.00 0.00 100 1002.9
20260508022814 54 0 0.0 0.0 0.00 0.00 0.00 100 1002.9
20260508021814 54 0 0.0 0.0 0.00 0.00 0.00 100 1002.8
20260508020744 55 0 0.0 0.0 0.00 0.00 0.00 100 1002.8
20260508015744 55 34 0.0 0.0 0.00 0.00 0.00 100 1002.9
20260508014744 55 14 0.0 0.0 0.00 0.00 0.00 100 1003.0
20260508013743 55 30 0.0 0.0 0.00 0.00 0.00 100 1003.0
20260508012743 56 6 0.0 0.0 0.00 0.00 0.00 100 1003.0
20260508011743 56 5 0.0 0.0 0.00 0.00 0.00 100 1003.1
20260508010744 56 1 0.0 0.0 0.00 0.00 0.00 100 1003.4
20260508005713 56 12 0.0 0.0 0.00 0.00 0.00 100 1003.6
20260508004714 57 0 0.0 0.0 0.00 0.00 0.00 100 1003.5
20260508003713 57 15 0.0 0.0 0.00 0.00 0.00 100 1003.5
20260508002713 57 17 0.0 0.0 0.00 0.00 0.00 100 1003.6
20260508001713 57 3 0.0 0.0 0.00 0.00 0.00 100 1003.7
20260508000713 58 0 0.0 0.0 0.00 0.00 0.00 100 1003.8
20260507235713 58 0 0.0 0.0 0.00 0.00 0.00 100 1003.7
20260507234713 58 7 0.0 0.0 0.00 0.00 0.00 100 1003.7
20260507233713 58 5 0.0 0.0 0.00 0.00 0.00 100 1003.8
20260507232713 58 8 0.0 0.0 0.00 0.00 0.00 100 1003.8
20260507231713 58 6 0.0 0.0 0.00 0.00 0.00 100 1003.8
20260507230713 59 2 0.0 0.0 0.00 0.00 0.00 100 1003.9
20260507225712 59 9 0.0 0.0 0.00 0.00 0.00 100 1003.8
20260507224712 59 11 0.0 0.0 0.00 0.00 0.00 100 1003.8
20260507223712 59 8 0.0 0.0 0.00 0.00 0.00 100 1004.0
20260507222642 60 8 0.0 0.0 0.00 0.00 0.00 100 1004.0
20260507221642 60 14 0.0 0.0 0.00 0.00 0.00 100 1004.0
20260507220642 60 4 0.0 0.0 0.00 0.00 0.00 100 1004.1
20260507215642 60 17 0.0 0.0 0.00 0.00 0.00 100 1004.1
20260507214642 60 19 0.0 0.0 0.00 0.00 0.00 100 1004.0
20260507213642 60 19 0.0 0.0 0.00 0.00 0.00 100 1004.1
20260507212642 61 22 0.0 0.0 0.00 0.00 0.00 100 1004.1
20260507211642 62 42 0.0 0.0 0.00 0.00 0.00 100 1004.1
20260507210641 62 42 0.0 0.0 0.00 0.00 0.00 100 1004.1
20260507205611 62 48 0.0 0.0 0.00 0.00 0.00 100 1003.9
20260507204611 62 48 0.0 0.0 0.00 0.00 0.00 100 1004.0
20260507203611 62 47 0.0 0.0 0.00 0.00 0.00 100 1004.0
20260507202611 62 47 0.0 0.0 0.00 0.00 0.00 100 1003.9
20260507201541 62 47 0.0 0.0 0.00 0.00 0.00 100 1003.8
20260507200541 62 47 0.0 0.0 0.00 0.00 0.00 100 1003.7
20260507195541 62 47 0.0 0.0 0.00 0.00 0.00 100 1422.8
20260507194541 63 99 0.0 0.0 0.00 0.00 0.00 100 1403.5
20260507193511 63 99 0.0 0.0 0.00 0.00 0.00 100 1003.4
20260507192511 63 99 0.0 0.0 0.00 0.00 0.00 100 1003.2
20260507191510 63 100 0.0 0.0 0.00 0.00 0.00 100 1002.9
20260507190440 64 100 0.0 0.0 0.00 0.00 0.00 100 1002.9
20260507185440 65 132 0.0 0.0 0.00 0.00 0.00 100 1002.8
20260507184440 65 128 0.0 0.0 0.00 0.00 0.00 100 1002.6
20260507183410 67 141 0.0 0.0 0.00 0.00 0.00 100 1002.6
20260507182410 67 141 0.0 0.0 0.00 0.00 0.00 100 1002.5
20260507181410 66 136 0.0 0.0 0.00 0.00 0.00 100 1000.8
20260507180410 67 119 0.0 0.0 0.00 0.00 0.00 100 1002.5
20260507175340 68 136 0.0 0.0 0.00 0.00 0.00 100 1002.4
20260507174339 68 132 0.0 0.0 0.00 0.00 0.00 100 1002.2
20260507173309 68 158 0.0 0.0 0.00 0.00 0.00 100 1002.2
20260507172310 69 99 0.0 0.0 0.00 0.00 0.00 100 1002.3
20260507171239 71 129 0.0 0.0 0.00 0.00 0.00 100 1002.2
20260507170239 72 117 0.0 0.0 0.00 0.00 0.00 100 1002.1
20260507165239 70 105 0.0 0.0 0.00 0.00 0.00 100 1001.8
20260507164239 70 130 0.0 0.0 0.00 0.00 0.00 100 1002.0
20260507163239 71 125 0.0 0.0 0.00 0.00 0.00 100 1001.9
20260507162209 71 144 0.0 0.0 0.00 0.00 0.00 100 1001.8
20260507161209 72 133 0.0 0.0 0.00 0.00 0.00 100 1001.6
20260507160139 74 136 0.0 0.0 0.00 0.00 0.00 100 1004.8
20260507155139 72 130 0.0 0.0 0.00 0.00 0.00 100 1001.5
20260507154138 72 124 0.0 0.0 0.00 0.00 0.00 100 1001.6
20260507153108 72 97 0.0 0.0 0.00 0.00 0.00 100 1001.9
20260507152108 72 164 0.0 0.0 0.00 0.00 0.00 100 1002.0
20260507151108 72 136 0.0 0.0 0.00 0.00 0.00 100 1002.1
20260507150038 72 74 0.0 0.0 0.00 0.00 0.00 100 1002.1
20260507145038 72 110 0.0 0.0 0.00 0.00 0.00 100 1002.3
20260507144038 73 93 0.0 0.0 0.00 0.00 0.00 100 1002.3
20260507143038 89 91 0.0 0.0 0.00 0.00 0.00 100 1023.0
20260507142038 85 100 0.0 0.0 0.00 0.00 0.00 100 1019.2
20260507141037 73 148 0.0 0.0 0.00 0.00 0.00 100 1002.4
20260507140037 72 135 0.0 0.0 0.00 0.00 0.00 100 1002.7
20260507135037 73 150 0.0 0.0 0.00 0.00 0.00 100 1002.9
20260507134037 73 138 0.0 0.0 0.00 0.00 0.00 100 1002.9
20260507133037 72 137 0.0 0.0 0.00 0.00 0.00 100 1003.1
20260507132007 72 131 0.0 0.0 0.00 0.00 0.00 100 1003.1
20260507130937 72 76 0.0 0.0 0.00 0.00 0.00 100 1003.6
20260507125937 73 87 0.0 0.0 0.00 0.00 0.00 100 1003.5
20260507124907 71 116 0.0 0.0 0.00 0.00 0.00 100 1003.4
20260507123907 71 120 0.0 0.0 0.00 0.00 0.00 100 1003.9
20260507122907 73 166 0.0 0.0 0.00 0.00 0.00 100 1003.8
20260507121907 74 109 0.0 0.0 0.00 0.00 0.00 100 1003.9
20260507120837 73 111 0.0 0.0 0.00 0.00 0.00 100 1003.7
20260507115837 72 163 0.0 0.0 0.00 0.00 0.00 100 1003.8
20260507114837 71 121 0.0 0.0 0.00 0.00 0.00 100 1004.1
20260507113836 70 140 0.0 0.0 0.00 0.00 0.00 100 1003.9
20260507112836 71 135 0.0 0.0 0.00 0.00 0.00 100 1004.0
20260507111836 71 125 0.0 0.0 0.00 0.00 0.00 100 1004.2
20260507110836 71 147 0.0 0.0 0.00 0.00 0.00 100 1004.0
20260507105836 71 132 0.0 0.0 0.00 0.00 0.00 100 1004.2
20260507104806 71 75 0.0 0.0 0.00 0.00 0.00 100 1004.3
20260507103806 71 137 0.0 0.0 0.00 0.00 0.00 100 1004.3
20260507102806 71 110 0.0 0.0 0.00 0.00 0.00 100 1004.3
20260507101806 69 129 0.0 0.0 0.00 0.00 0.00 100 1004.2
20260507100806 70 136 0.0 0.0 0.00 0.00 0.00 100 1004.5
20260507095805 70 128 0.0 0.0 0.00 0.00 0.00 100 1004.4
20260507094805 70 82 0.0 0.0 0.00 0.00 0.00 100 1004.5
20260507093805 69 154 0.0 0.0 0.00 0.00 0.00 100 1004.5
20260507092805 69 135 0.0 0.0 0.00 0.00 0.00 100 1004.4
20260507091805 69 135 0.0 0.0 0.00 0.00 0.00 100 1004.5
20260507090805 69 142 0.0 0.0 0.00 0.00 0.00 100 1004.4
20260507085805 69 147 0.0 0.0 0.00 0.00 0.00 100 1004.5
20260507084735 67 151 0.0 0.0 0.00 0.00 0.00 100 1004.3
20260507083735 66 139 0.0 0.0 0.00 0.00 0.00 100 1004.3
20260507082735 65 55 0.0 0.0 0.00 0.00 0.00 100 1004.2
20260507081735 64 32 0.0 0.0 0.00 0.00 0.00 100 1004.3
20260507080704 63 25 0.0 0.0 0.00 0.00 0.00 100 1004.2
20260507075704 63 0 0.0 0.0 0.00 0.00 0.00 100 1004.4
20260507074704 63 353 0.0 0.0 0.00 0.00 0.00 100 1004.6
20260507073634 62 32 0.0 0.0 0.00 0.00 0.00 100 1004.7
20260507072634 62 0 0.0 0.0 0.00 0.00 0.00 100 1004.8
20260507071634 61 0 0.0 0.0 0.00 0.00 0.00 100 1004.8
20260507070634 60 23 0.0 0.0 0.00 0.00 0.00 100 1004.8
20260507065604 60 27 0.0 0.0 0.00 0.00 0.00 100 1004.8
20260507064534 59 3 0.0 0.0 0.00 0.00 0.00 100 1004.7
20260507063533 58 10 0.0 0.0 0.00 0.00 0.00 100 1004.7
20260507062533 58 19 0.0 0.0 0.00 0.00 0.00 100 1004.6
20260507061507 58 38 0.0 0.0 0.00 0.00 0.00 100 1004.3
20260507060437 57 36 0.0 0.0 0.00 0.00 0.00 100 1004.3
20260507055437 56 1 0.0 0.0 0.00 0.00 0.00 100 1004.2
20260507054437 55 35 0.0 0.0 0.00 0.00 0.00 100 1004.2
20260507053407 55 16 0.0 0.0 0.00 0.00 0.00 100 1004.2
20260507052407 54 26 0.0 0.0 0.00 0.00 0.00 100 1004.1
20260507051336 53 21 0.0 0.0 0.00 0.00 0.00 100 1004.0
20260507050336 52 9 0.0 0.0 0.00 0.00 0.00 100 1003.9
20260507045336 52 18 0.0 0.0 0.00 0.00 0.00 100 1003.9
20260507044337 52 357 0.0 0.0 0.00 0.00 0.00 100 1003.9
20260507043306 52 5 0.0 0.0 0.00 0.00 0.00 100 1003.9
20260507042307 53 13 0.0 0.0 0.00 0.00 0.00 100 1003.9
20260507041306 52 9 0.0 0.0 0.00 0.00 0.00 100 1003.9
20260507040306 52 6 0.0 0.0 0.00 0.00 0.00 100 1003.9
20260507035235 53 0 0.0 0.0 0.00 0.00 0.00 100 1003.8
20260507034205 53 8 0.0 0.0 0.00 0.00 0.00 100 1003.7
20260507033205 53 11 0.0 0.0 0.00 0.00 0.00 100 1003.9
20260507032205 53 17 0.0 0.0 0.00 0.00 0.00 100 1003.8
20260507031205 53 17 0.0 0.0 0.00 0.00 0.00 100 1003.9